WB4FAY-4 Weather Reports


Display with metric or nautical units.
time (UTC)temp
F
wind
direction
speed
MPH
gust
MPH
rain 1hr
in
rain 24hr
in
rain mn
in
humidity
%
barometer
mb
20260504204518 79 233 0.0 8.0 0.00 0.00 0.00 36 1014.7
20260504204017 80 263 5.0 7.0 0.00 0.00 0.00 34 1014.7
20260504203518 80 318 1.0 7.0 0.00 0.00 0.00 36 1014.7
20260504203017 80 195 0.0 9.0 0.00 0.00 0.00 34 1014.8
20260504202517 80 234 0.0 5.0 0.00 0.00 0.00 36 1014.8
20260504202018 80 167 0.0 4.0 0.00 0.00 0.00 35 1014.8
20260504201517 79 313 0.0 11.0 0.00 0.00 0.00 38 1014.8
20260504201017 79 198 0.0 5.0 0.00 0.00 0.00 36 1014.9
20260504200517 79 257 4.0 3.0 0.00 0.00 0.00 38 1015.0
20260504200017 78 0 0.0 0.0 0.00 0.00 0.00 39 1015.1
20260504195517 78 229 0.0 6.0 0.00 0.00 0.00 39 1015.2
20260504195017 78 83 2.0 4.0 0.00 0.00 0.00 36 1015.2
20260504194518 78 248 0.0 3.0 0.00 0.00 0.00 40 1015.3
20260504194017 78 256 0.0 4.0 0.00 0.00 0.00 39 1015.3
20260504193517 77 184 3.0 5.0 0.00 0.00 0.00 39 1015.4
20260504193017 77 247 0.0 3.0 0.00 0.00 0.00 40 1015.5
20260504192517 77 244 0.0 4.0 0.00 0.00 0.00 40 1015.5
20260504192017 77 258 0.0 6.0 0.00 0.00 0.00 39 1015.7
20260504191518 77 51 1.0 5.0 0.00 0.00 0.00 41 1015.7
20260504191017 77 48 3.0 5.0 0.00 0.00 0.00 43 1015.7
20260504190517 77 0 0.0 0.0 0.00 0.00 0.00 43 1015.8
20260504190017 77 78 0.0 3.0 0.00 0.00 0.00 43 1015.8
20260504185517 76 85 2.0 3.0 0.00 0.00 0.00 40 1015.9
20260504185017 77 0 0.0 0.0 0.00 0.00 0.00 41 1016.0
20260504184517 76 213 0.0 6.0 0.00 0.00 0.00 40 1016.2
20260504184017 77 196 0.0 5.0 0.00 0.00 0.00 39 1016.2
20260504183517 77 179 4.0 9.0 0.00 0.00 0.00 39 1016.2
20260504183017 77 215 0.0 2.0 0.00 0.00 0.00 41 1016.3
20260504182517 76 186 0.0 3.0 0.00 0.00 0.00 41 1016.4
20260504182017 76 83 1.0 7.0 0.00 0.00 0.00 42 1016.5
20260504181517 76 244 2.0 6.0 0.00 0.00 0.00 42 1016.6
20260504181017 76 247 0.0 5.0 0.00 0.00 0.00 42 1016.5
20260504180517 76 17 4.0 3.0 0.00 0.00 0.00 44 1016.5
20260504180017 76 172 0.0 6.0 0.00 0.00 0.00 42 1016.8
20260504175517 76 191 5.0 6.0 0.00 0.00 0.00 41 1016.9
20260504175017 77 257 0.0 3.0 0.00 0.00 0.00 46 1016.9
20260504174517 77 206 0.0 5.0 0.00 0.00 0.00 43 1016.9
20260504174017 77 164 0.0 4.0 0.00 0.00 0.00 43 1016.9
20260504173517 76 157 4.0 4.0 0.00 0.00 0.00 43 1017.0
20260504173017 76 222 2.0 5.0 0.00 0.00 0.00 43 1017.1
20260504172517 76 134 0.0 4.0 0.00 0.00 0.00 44 1017.1
20260504172018 75 134 2.0 7.0 0.00 0.00 0.00 44 1017.2
20260504171517 75 0 0.0 0.0 0.00 0.00 0.00 45 1017.3
20260504171017 74 189 0.0 3.0 0.00 0.00 0.00 45 1017.5
20260504170518 74 240 0.0 3.0 0.00 0.00 0.00 45 1017.6
20260504151017 68 232 0.0 3.0 0.00 0.00 0.00 57 1018.5
20260504150518 67 237 2.0 3.0 0.00 0.00 0.00 57 1018.5
20260504141017 63 179 1.0 6.0 0.00 0.00 0.00 64 1019.0
20260504140517 62 199 0.0 3.0 0.00 0.00 0.00 64 1019.1
20260504130517 55 0 0.0 0.0 0.00 0.00 0.00 88 1019.2
20260504110517 50 0 0.0 0.0 0.00 0.00 0.00 91 1018.4
20260504100517 50 0 0.0 0.0 0.00 0.00 0.00 91 1018.4
20260504081517 51 0 0.0 0.0 0.00 0.00 0.00 88 1018.1
20260504081017 51 0 0.0 0.0 0.00 0.00 0.00 88 1018.2
20260504080517 51 0 0.0 0.0 0.00 0.00 0.00 88 1018.3
20260504050517 53 0 0.0 0.0 0.00 0.00 0.00 80 1019.3
20260504050017 53 0 0.0 0.0 0.00 0.00 0.00 80 1019.3
20260504045517 53 0 0.0 0.0 0.00 0.00 0.00 80 1019.3
20260504045017 53 0 0.0 0.0 0.00 0.00 0.00 80 1019.3
20260504044517 54 0 0.0 0.0 0.00 0.00 0.00 80 1019.3
20260504044017 54 0 0.0 0.0 0.00 0.00 0.00 79 1019.4
20260504043517 54 0 0.0 0.0 0.00 0.00 0.00 79 1019.4
20260504043017 54 0 0.0 0.0 0.00 0.00 0.00 79 1019.4
20260504042517 54 0 0.0 0.0 0.00 0.00 0.00 78 1019.5
20260504042017 55 0 0.0 0.0 0.00 0.00 0.00 77 1019.5
20260504041517 55 0 0.0 0.0 0.00 0.00 0.00 77 1019.6
20260504041017 55 0 0.0 0.0 0.00 0.00 0.00 77 1019.5
20260504040517 55 0 0.0 0.0 0.00 0.00 0.00 77 1019.5
20260504040017 55 0 0.0 0.0 0.00 0.00 0.00 76 1019.6
20260504035518 55 0 0.0 0.0 0.00 0.00 0.00 77 1019.6
20260504035017 55 0 0.0 0.0 0.00 0.00 0.00 76 1019.7
20260504034517 55 0 0.0 0.0 0.00 0.00 0.00 76 1019.7
20260504034017 56 0 0.0 0.0 0.00 0.00 0.00 76 1019.7
20260504033517 56 0 0.0 0.0 0.00 0.00 0.00 76 1019.7
20260504033017 56 0 0.0 0.0 0.00 0.00 0.00 76 1019.8
20260504032517 56 0 0.0 0.0 0.00 0.00 0.00 76 1019.8
20260504032017 56 0 0.0 0.0 0.00 0.00 0.00 75 1019.8
20260504031517 56 0 0.0 0.0 0.00 0.00 0.00 75 1019.8
20260504031017 56 0 0.0 0.0 0.00 0.00 0.00 75 1019.8
20260504030517 56 0 0.0 0.0 0.00 0.00 0.00 74 1019.8
20260504030017 57 0 0.0 0.0 0.00 0.00 0.00 74 1019.8
20260504025517 57 0 0.0 0.0 0.00 0.00 0.00 74 1019.7
20260504025017 57 0 0.0 0.0 0.00 0.00 0.00 73 1019.6
20260504024517 57 0 0.0 0.0 0.00 0.00 0.00 73 1019.6
20260504024017 57 0 0.0 0.0 0.00 0.00 0.00 73 1019.5
20260504023517 57 0 0.0 0.0 0.00 0.00 0.00 72 1019.4
20260504023017 58 0 0.0 0.0 0.00 0.00 0.00 72 1019.4
20260504022517 58 0 0.0 0.0 0.00 0.00 0.00 71 1019.3
20260504022017 58 0 0.0 0.0 0.00 0.00 0.00 70 1019.3
20260504021516 58 0 0.0 0.0 0.00 0.00 0.00 70 1019.2
20260504021017 58 0 0.0 0.0 0.00 0.00 0.00 69 1019.2
20260504020517 59 0 0.0 0.0 0.00 0.00 0.00 68 1019.2
20260504020017 59 0 0.0 0.0 0.00 0.00 0.00 68 1019.2
20260504015517 59 0 0.0 0.0 0.00 0.00 0.00 67 1019.1
20260504015017 59 0 0.0 0.0 0.00 0.00 0.00 67 1019.1
20260504014517 59 0 0.0 0.0 0.00 0.00 0.00 66 1019.1
20260504014017 59 0 0.0 0.0 0.00 0.00 0.00 66 1019.2
20260504013522 60 0 0.0 0.0 0.00 0.00 0.00 64 1019.0
20260504013018 61 0 0.0 0.0 0.00 0.00 0.00 63 1018.9
20260504012517 61 0 0.0 0.0 0.00 0.00 0.00 62 1018.8
20260504012017 61 0 0.0 0.0 0.00 0.00 0.00 63 1018.7
20260504011517 61 0 0.0 0.0 0.00 0.00 0.00 61 1018.8
20260504011017 62 0 0.0 0.0 0.00 0.00 0.00 60 1018.8
20260504010517 62 0 0.0 0.0 0.00 0.00 0.00 60 1018.8
20260504010017 62 0 0.0 0.0 0.00 0.00 0.00 57 1018.6
20260504005517 63 0 0.0 0.0 0.00 0.00 0.00 57 1018.6
20260504005017 63 0 0.0 0.0 0.00 0.00 0.00 56 1018.5
20260504004517 64 0 0.0 0.0 0.00 0.00 0.00 54 1018.5
20260504004017 64 0 0.0 0.0 0.00 0.00 0.00 53 1018.4
20260504003517 65 0 0.0 0.0 0.00 0.00 0.00 54 1018.4
20260504003017 65 0 0.0 0.0 0.00 0.00 0.00 51 1018.3
20260504002517 66 0 0.0 0.0 0.00 0.00 0.00 50 1018.3
20260504002017 66 0 0.0 0.0 0.00 0.00 0.00 49 1018.3
20260504001517 66 0 0.0 0.0 0.00 0.00 0.00 49 1018.3
20260504001017 66 0 0.0 0.0 0.00 0.00 0.00 47 1018.3
20260504000517 67 0 0.0 0.0 0.00 0.00 0.00 48 1018.3
20260504000017 67 0 0.0 0.0 0.00 0.00 0.00 46 1018.3
20260503235517 67 0 0.0 0.0 0.00 0.00 0.00 45 1018.3
20260503235016 68 0 0.0 0.0 0.00 0.00 0.00 47 1018.3
20260503234517 68 0 0.0 0.0 0.00 0.00 0.00 45 1018.2
20260503234017 68 0 0.0 0.0 0.00 0.00 0.00 43 1018.2
20260503233517 69 0 0.0 0.0 0.00 0.00 0.00 43 1018.2
20260503233017 69 0 0.0 0.0 0.00 0.00 0.00 42 1018.2
20260503232517 69 0 0.0 0.0 0.00 0.00 0.00 41 1018.1
20260503232016 69 0 0.0 0.0 0.00 0.00 0.00 40 1018.2
20260503231517 69 0 0.0 0.0 0.00 0.00 0.00 39 1018.2
20260503231017 69 325 0.0 5.0 0.00 0.00 0.00 39 1018.3
20260503230517 70 330 0.0 3.0 0.00 0.00 0.00 39 1018.3
20260503230017 70 332 2.0 6.0 0.00 0.00 0.00 37 1018.3
20260503225517 71 18 0.0 6.0 0.00 0.00 0.00 37 1018.3
20260503225017 71 319 2.0 6.0 0.00 0.00 0.00 35 1018.3
20260503224517 72 313 0.0 5.0 0.00 0.00 0.00 34 1018.4
20260503224017 72 330 1.0 5.0 0.00 0.00 0.00 34 1018.5
20260503223517 72 268 0.0 5.0 0.00 0.00 0.00 36 1018.4
20260503223017 72 270 0.0 5.0 0.00 0.00 0.00 35 1018.4
20260503222517 72 284 4.0 5.0 0.00 0.00 0.00 37 1018.5
20260503222017 72 339 0.0 6.0 0.00 0.00 0.00 37 1018.5
20260503221518 72 339 2.0 9.0 0.00 0.00 0.00 35 1018.6
20260503221017 73 309 0.0 6.0 0.00 0.00 0.00 37 1018.6
20260503220517 73 16 3.0 5.0 0.00 0.00 0.00 34 1018.6
20260503220017 73 257 0.0 9.0 0.00 0.00 0.00 33 1018.7
20260503215518 73 330 0.0 4.0 0.00 0.00 0.00 34 1018.6
20260503215017 73 352 4.0 6.0 0.00 0.00 0.00 34 1018.7
20260503214517 73 311 5.0 9.0 0.00 0.00 0.00 32 1018.8
20260503214017 73 332 2.0 9.0 0.00 0.00 0.00 33 1018.8
20260503213517 73 328 5.0 8.0 0.00 0.00 0.00 34 1018.8
20260503213017 74 335 5.0 8.0 0.00 0.00 0.00 33 1019.0
20260503212517 74 179 2.0 6.0 0.00 0.00 0.00 35 1019.0
20260503212017 73 277 2.0 6.0 0.00 0.00 0.00 35 1019.0
20260503211517 73 356 1.0 6.0 0.00 0.00 0.00 35 1019.1
20260503211017 73 347 5.0 6.0 0.00 0.00 0.00 35 1019.3
20260503210518 73 347 4.0 6.0 0.00 0.00 0.00 34 1019.3
20260503210017 73 8 2.0 9.0 0.00 0.00 0.00 33 1019.4
20260503205517 73 292 7.0 5.0 0.00 0.00 0.00 35 1019.3
20260503205017 72 251 3.0 9.0 0.00 0.00 0.00 36 1019.4